When you browse on this site, cookies collect data to enhance your experience and personalize the content and advertising you see.
Visit our Privacy Policy to learn more. By continuing to use the site, you agree to this use of cookies and data.
  • în România
  • Lista ţărilor
  • Pe 7 zile
  • Temperatura apei
  • Meteo pe hartă
  • Widget-uri
  • user-avatar
    Intrare

    Meteo pe oră la Bangalore

    Astăzi, 3 Iunie, Miercuri

    Timp Temperatura Precipitaţii Vânt Presiune Umiditate
    00:00 +23°C° 0 mm 6 m/s 682 mmHg 79%
    01:00 +23°C° 0 mm 6 m/s 681 mmHg 81%
    02:00 +23°C° 0 mm 5 m/s 681 mmHg 82%
    03:00 +22°C° 0 mm 5 m/s 681 mmHg 83%
    04:00 +22°C° 0 mm 5 m/s 681 mmHg 85%
    05:00 +22°C° 0 mm 5 m/s 681 mmHg 87%
    06:00 +23°C° 0 mm 5 m/s 681 mmHg 84%
    07:00 +23°C° 0 mm 5 m/s 682 mmHg 81%
    08:00 +24°C° 0 mm 6 m/s 682 mmHg 78%
    09:00 +27°C° 0 mm 6 m/s 682 mmHg 71%
    10:00 +28°C° 0 mm 7 m/s 683 mmHg 64%
    11:00 +30°C° 0 mm 7 m/s 683 mmHg 57%
    12:00 +30°C° 0 mm 7 m/s 682 mmHg 55%
    13:00 +32°C° 0 mm 7 m/s 682 mmHg 53%
    14:00 +32°C° 0 mm 6 m/s 681 mmHg 51%
    15:00 +32°C° 0.1 mm 6 m/s 681 mmHg 53%
    16:00 +32°C° 0.1 mm 6 m/s 681 mmHg 54%
    17:00 +30°C° 0.1 mm 6 m/s 681 mmHg 56%
    18:00 +29°C° 0 mm 6 m/s 681 mmHg 60%
    19:00 +28°C° 0 mm 6 m/s 682 mmHg 64%
    20:00 +27°C° 0 mm 5 m/s 682 mmHg 68%
    21:00 +26°C° 0 mm 5 m/s 682 mmHg 70%
    22:00 +26°C° 0 mm 5 m/s 682 mmHg 73%
    23:00 +25°C° 0 mm 5 m/s 682 mmHg 75%

    Mâine, 4 Iunie, Joi

    Timp Temperatura Precipitaţii Vânt Presiune Umiditate
    00:00 +25°C° 0 mm 5 m/s 682 mmHg 76%
    01:00 +23°C° 0 mm 5 m/s 681 mmHg 76%
    02:00 +23°C° 0 mm 5 m/s 681 mmHg 77%
    03:00 +22°C° 0 mm 4 m/s 681 mmHg 78%
    04:00 +22°C° 0 mm 4 m/s 681 mmHg 79%
    05:00 +22°C° 0 mm 4 m/s 681 mmHg 80%
    06:00 +23°C° 0 mm 4 m/s 682 mmHg 76%
    07:00 +25°C° 0 mm 4 m/s 682 mmHg 71%
    08:00 +25°C° 0 mm 5 m/s 683 mmHg 67%
    09:00 +27°C° 0 mm 5 m/s 683 mmHg 61%
    10:00 +29°C° 0 mm 5 m/s 683 mmHg 54%
    11:00 +30°C° 0 mm 5 m/s 683 mmHg 48%
    12:00 +32°C° 0 mm 5 m/s 683 mmHg 45%
    13:00 +33°C° 0 mm 5 m/s 682 mmHg 43%
    14:00 +34°C° 0 mm 5 m/s 682 mmHg 41%
    15:00 +33°C° 0 mm 5 m/s 681 mmHg 42%
    16:00 +33°C° 0 mm 5 m/s 681 mmHg 44%
    17:00 +32°C° 0 mm 4 m/s 681 mmHg 46%
    18:00 +30°C° 0.1 mm 4 m/s 682 mmHg 51%
    19:00 +29°C° 0.1 mm 5 m/s 682 mmHg 56%
    20:00 +28°C° 0.1 mm 5 m/s 683 mmHg 61%
    21:00 +27°C° 0 mm 5 m/s 683 mmHg 65%
    22:00 +26°C° 0 mm 5 m/s 683 mmHg 69%
    23:00 +26°C° 0 mm 5 m/s 683 mmHg 73%

    Poimâine, 5 Iunie, Vineri

    Timp Temperatura Precipitaţii Vânt Presiune Umiditate
    00:00 +25°C° 0 mm 5 m/s 682 mmHg 74%
    01:00 +25°C° 0 mm 4 m/s 682 mmHg 76%
    02:00 +23°C° 0 mm 4 m/s 681 mmHg 77%
    03:00 +23°C° 0 mm 4 m/s 681 mmHg 78%
    04:00 +23°C° 0 mm 4 m/s 681 mmHg 78%
    05:00 +22°C° 0 mm 3 m/s 681 mmHg 79%
    06:00 +23°C° 0 mm 4 m/s 682 mmHg 74%
    07:00 +25°C° 0 mm 4 m/s 683 mmHg 69%
    08:00 +26°C° 0 mm 4 m/s 684 mmHg 63%
    09:00 +28°C° 0 mm 4 m/s 684 mmHg 57%
    10:00 +29°C° 0 mm 4 m/s 684 mmHg 51%
    11:00 +32°C° 0 mm 5 m/s 684 mmHg 44%
    12:00 +32°C° 0 mm 4 m/s 683 mmHg 43%
    13:00 +33°C° 0 mm 4 m/s 683 mmHg 41%
    14:00 +33°C° 0 mm 4 m/s 682 mmHg 40%
    15:00 +33°C° 0 mm 4 m/s 682 mmHg 42%
    16:00 +33°C° 0 mm 4 m/s 682 mmHg 43%
    17:00 +32°C° 0 mm 4 m/s 681 mmHg 45%
    18:00 +30°C° 0.7 mm 4 m/s 682 mmHg 51%
    19:00 +29°C° 0.7 mm 5 m/s 682 mmHg 57%
    20:00 +27°C° 0.7 mm 5 m/s 683 mmHg 63%
    21:00 +27°C° 0.4 mm 5 m/s 683 mmHg 66%
    22:00 +26°C° 0.4 mm 4 m/s 683 mmHg 69%
    23:00 +26°C° 0.4 mm 4 m/s 683 mmHg 72%

    6 Iunie, Sâmbătă

    Timp Temperatura Precipitaţii Vânt Presiune Umiditate
    00:00 +25°C° 0 mm 4 m/s 682 mmHg 75%
    01:00 +25°C° 0 mm 4 m/s 682 mmHg 78%
    02:00 +23°C° 0 mm 4 m/s 681 mmHg 81%
    03:00 +23°C° 0 mm 4 m/s 681 mmHg 82%
    04:00 +22°C° 0 mm 4 m/s 681 mmHg 83%
    05:00 +22°C° 0 mm 3 m/s 681 mmHg 84%
    06:00 +24°C° 0 mm 3 m/s 682 mmHg 78%
    07:00 +25°C° 0 mm 4 m/s 682 mmHg 72%
    08:00 +26°C° 0 mm 4 m/s 683 mmHg 66%
    09:00 +27°C° 0 mm 4 m/s 683 mmHg 58%
    10:00 +29°C° 0 mm 4 m/s 683 mmHg 51%
    11:00 +32°C° 0 mm 4 m/s 684 mmHg 43%
    12:00 +33°C° 0 mm 3 m/s 683 mmHg 40%
    13:00 +33°C° 0 mm 3 m/s 682 mmHg 37%
    14:00 +34°C° 0 mm 3 m/s 682 mmHg 33%
    15:00 +34°C° 0 mm 3 m/s 682 mmHg 34%
    16:00 +34°C° 0 mm 4 m/s 682 mmHg 36%
    17:00 +33°C° 0 mm 4 m/s 681 mmHg 37%
    18:00 +32°C° 0 mm 4 m/s 682 mmHg 43%
    19:00 +30°C° 0 mm 5 m/s 682 mmHg 50%
    20:00 +28°C° 0 mm 6 m/s 683 mmHg 57%
    21:00 +28°C° 0.2 mm 5 m/s 683 mmHg 60%
    22:00 +27°C° 0.2 mm 5 m/s 683 mmHg 64%
    23:00 +26°C° 0.2 mm 4 m/s 683 mmHg 67%

    7 Iunie, Duminică

    Timp Temperatura Precipitaţii Vânt Presiune Umiditate
    00:00 +26°C° 0 mm 4 m/s 682 mmHg 70%
    01:00 +25°C° 0 mm 4 m/s 682 mmHg 73%
    02:00 +25°C° 0 mm 4 m/s 681 mmHg 75%
    03:00 +23°C° 0 mm 4 m/s 681 mmHg 77%
    04:00 +23°C° 0 mm 4 m/s 681 mmHg 79%
    05:00 +23°C° 0 mm 4 m/s 681 mmHg 81%
    06:00 +23°C° 0 mm 4 m/s 681 mmHg 76%
    07:00 +25°C° 0 mm 4 m/s 682 mmHg 72%
    08:00 +26°C° 0 mm 4 m/s 683 mmHg 67%
    09:00 +28°C° 0 mm 4 m/s 683 mmHg 59%
    10:00 +30°C° 0 mm 4 m/s 683 mmHg 50%
    11:00 +32°C° 0 mm 4 m/s 683 mmHg 42%
    12:00 +33°C° 0 mm 4 m/s 683 mmHg 39%
    13:00 +34°C° 0 mm 4 m/s 682 mmHg 37%
    14:00 +35°C° 0 mm 4 m/s 682 mmHg 34%
    15:00 +34°C° 0 mm 4 m/s 681 mmHg 35%
    16:00 +34°C° 0 mm 4 m/s 681 mmHg 36%
    17:00 +33°C° 0 mm 3 m/s 681 mmHg 37%
    18:00 +32°C° 0 mm 4 m/s 681 mmHg 41%
    19:00 +32°C° 0 mm 4 m/s 682 mmHg 44%
    20:00 +30°C° 0 mm 4 m/s 682 mmHg 48%
    21:00 +29°C° 0.4 mm 4 m/s 682 mmHg 54%
    22:00 +28°C° 0.4 mm 4 m/s 682 mmHg 59%
    23:00 +27°C° 0.4 mm 5 m/s 682 mmHg 65%

    8 Iunie, Luni

    Timp Temperatura Precipitaţii Vânt Presiune Umiditate
    00:00 +26°C° 0.2 mm 4 m/s 682 mmHg 68%
    01:00 +25°C° 0.2 mm 4 m/s 681 mmHg 70%
    02:00 +25°C° 0.2 mm 4 m/s 681 mmHg 73%
    03:00 +23°C° 0.1 mm 4 m/s 681 mmHg 75%
    04:00 +23°C° 0.1 mm 4 m/s 681 mmHg 78%
    05:00 +23°C° 0.1 mm 4 m/s 681 mmHg 80%
    06:00 +23°C° 0 mm 4 m/s 682 mmHg 76%
    07:00 +25°C° 0 mm 4 m/s 682 mmHg 71%
    08:00 +26°C° 0 mm 5 m/s 682 mmHg 67%
    09:00 +28°C° 0 mm 5 m/s 683 mmHg 58%
    10:00 +30°C° 0 mm 5 m/s 683 mmHg 49%
    11:00 +33°C° 0 mm 5 m/s 683 mmHg 40%
    12:00 +34°C° 0 mm 5 m/s 682 mmHg 38%
    13:00 +34°C° 0 mm 5 m/s 682 mmHg 35%
    14:00 +35°C° 0 mm 4 m/s 681 mmHg 32%
    15:00 +35°C° 0 mm 4 m/s 681 mmHg 32%
    16:00 +34°C° 0 mm 4 m/s 681 mmHg 32%
    17:00 +34°C° 0 mm 4 m/s 681 mmHg 33%
    18:00 +33°C° 0 mm 4 m/s 681 mmHg 36%
    19:00 +32°C° 0 mm 4 m/s 681 mmHg 39%
    20:00 +31°C° 0 mm 3 m/s 682 mmHg 42%
    21:00 +30°C° 0 mm 4 m/s 682 mmHg 49%
    22:00 +28°C° 0 mm 4 m/s 682 mmHg 55%
    23:00 +27°C° 0 mm 4 m/s 682 mmHg 62%
    Arată mai mult